Regional Weather Roundup
Issued by NWS

Home | Current Version | Previous Version | Graphics & Text | Print | Product List | Glossary On
Versions: 1 2 3 4 5 6 7 8 9 10 11 12 13 14 15 16 17 18 19 20 21 22 23 24 25 26 27 28 29 30 31 32 33 34 35 36 37 38 39 40 41 42 43 44 45 46 47 48 49 50
974
ASUS43 KDMX 111808
RWRIA

WEATHER ROUNDUP FOR IOWA
NATIONAL WEATHER SERVICE DES MOINES IA
1200 PM CST THU FEB 11 2016

NOTE: "FAIR" INDICATES FEW OR NO CLOUDS BELOW 12,000 FEET WITH NO
SIGNIFICANT WEATHER AND/OR OBSTRUCTIONS TO VISIBILITY.

* - THESE STATIONS ARE NOT NWS STATIONS...THUS NOT UNDER NWS
QUALITY CONTROL.  THEY ALSO DO NOT REPORT WEATHER SUCH
AS PRECIPITATION OR FOG.

IAZ001>003-012>014-020>022-031>034-043>046-111900-
   NORTHWEST IOWA

CITY           SKY/WX    TMP DP  RH WIND       PRES   REMARKS
CARROLL *      CLOUDY    12   5  73 S5        30.31F WCI   4
CHEROKEE *     CLOUDY    15   8  72 S10       30.28F WCI   3
DENISON *      CLOUDY    16   5  62 SE6       30.27F WCI   7
LE MARS *      CLOUDY    18  10  73 S13       30.25F WCI   4
ORANGE CITY *  CLOUDY    16   9  73 S8        30.23F WCI   5
SHELDON *      CLOUDY    14   9  79 S14       30.23F WCI  -1
SIOUX CITY     CLOUDY    19  10  68 SE13      30.26F WCI   6
6HR MIN TEMP:  17; 6HR MAX TEMP:  19;

SPENCER        CLOUDY    14   4  64 S12       30.25F WCI   0
6HR MIN TEMP:   9; 6HR MAX TEMP:  14;

STORM LAKE *   CLOUDY    12   7  79 S12       30.26F WCI  -2
$$

IAZ055>058-069>071-079>083-090>094-111900-
   SOUTHWEST IOWA

CITY           SKY/WX    TMP DP  RH WIND       PRES   REMARKS
ATLANTIC *     CLOUDY    18   3  53 E3        30.31S
AUDUBON *      CLOUDY    16   3  57 CALM      30.30F
CLARINDA *     CLOUDY    27  12  54 E6        30.33R WCI  20
COUNCIL BLFS * CLOUDY    18   9  68 SE5       30.29F WCI  11
CRESTON *      CLOUDY    19   1  45 E6        30.30F WCI  11
HARLAN  *      CLOUDY    16   5  62 E5        30.33F WCI   9
LAMONI         SUNNY     23   2  40 VRB5      30.30F WCI  17
6HR MIN TEMP:  10; 6HR MAX TEMP:  23;

RED OAK *      CLOUDY    21   9  58 S3        30.33R
SHENANDOAH *   PTSUNNY   27  16  63 VRB3      30.33R
$$

IAZ047>049-059>061-072>074-084-111900-
   CENTRAL IOWA

CITY           SKY/WX    TMP DP  RH WIND       PRES   REMARKS
AMES           CLOUDY    11   3  70 CALM      30.34F
6HR MIN TEMP:  -4; 6HR MAX TEMP:  11;

ANKENY *       PTSUNNY   16   1  53 CALM      30.35S
BOONE *        CLOUDY    10   0  61 SE6       30.31F WCI   1
CHARITON *     SUNNY     19   3  49 VRB5      30.33F WCI  13
DES MOINES     CLOUDY    16   0  49 S5        30.34F WCI   9
6HR MIN TEMP:   7; 6HR MAX TEMP:  16;

GRINNELL*      SUNNY     18   5  57 CALM      30.35S
KNOXVILLE *    MOSUNNY   16  -2  45 CALM      30.33F
MARSHALLTOWN   CLOUDY    14   3  61 CALM      30.34S
6HR MIN TEMP:  -1; 6HR MAX TEMP:  14;

NEWTON *       MOSUNNY   14   3  62 S3        30.35S
PELLA *        CLOUDY    21   1  42 CALM      30.37S
$$

IAZ004>006-015-016-023>025-035-036-111900-
   NORTH CENTRAL IOWA

CITY           SKY/WX    TMP DP  RH WIND       PRES   REMARKS
ALGONA *       CLOUDY    10   3  72 S12       30.29F WCI  -4
CLARION *      SUNNY      9   0  66 S6        30.32F WCI  -1
ESTHERVILLE    CLOUDY    10   3  73 S13       30.27F WCI  -5
6HR MIN TEMP:  -6; 6HR MAX TEMP:  10;

FORT DODGE *   CLOUDY    12   1  62 S6        30.32F WCI   3
MASON CITY     CLOUDY     8   0  69 S9        30.33S WCI  -5
6HR MIN TEMP:  -6; 6HR MAX TEMP:   9;

FOREST CITY *  SUNNY     10   1  67 S7        30.30F WCI   0
WEBSTER CITY * MOSUNNY   12   0  57 SE8       30.30F WCI   1
IOWA FALLS *     N/A     14   3  62 S3        30.33F HAZE
$$

IAZ007>011-017>019-026>030-037>042-050>054-066-111900-
   NORTHEAST IOWA

CITY           SKY/WX    TMP DP  RH WIND       PRES   REMARKS
CEDAR RAPIDS   SUNNY     17   4  56 VRB3      30.34S
6HR MIN TEMP:   3; 6HR MAX TEMP:  17;

CHARLES CITY * SUNNY     10  -2  56 CALM      30.33F
CLINTON *      SUNNY     25   5  42 VRB3      30.35F
DECORAH *      SUNNY     12  -4  48 CALM      30.31S
DUBUQUE        SUNNY     14   0  53 W3        30.32F
6HR MIN TEMP:   4; 6HR MAX TEMP:  15;

MONTICELLO *   SUNNY     16   1  53 CALM      30.35S
OELWEIN *      SUNNY     10   1  67 SW3       30.34S
WATERLOO       SUNNY     13   3  64 N5        30.35S WCI   5
6HR MIN TEMP:  -4; 6HR MAX TEMP:  13;

$$

IAZ064-065-067-068-078-111900-
   EAST CENTRAL IOWA

CITY           SKY/WX    TMP DP  RH WIND       PRES   REMARKS
DAVENPORT      SUNNY     18   0  45 CALM      30.35F
6HR MIN TEMP:   4; 6HR MAX TEMP:  19;

IOWA CITY      SUNNY     18   4  54 CALM      30.38F
6HR MIN TEMP:   8; 6HR MAX TEMP:  18;

MT. PLEASANT * SUNNY     23   7  51 CALM      30.35F
MUSCATINE *    SUNNY     21   3  45 SW5       30.38F WCI  15
QUAD CITIES    SUNNY     20   0  41 NE3       30.35F
6HR MIN TEMP:  10; 6HR MAX TEMP:  21;

$$

IAZ062-063-075>077-085>089-095>099-111900-
   SOUTHEAST IOWA

CITY           SKY/WX    TMP DP  RH WIND       PRES   REMARKS
BURLINGTON     SUNNY     19   5  54 E5        30.34F WCI  12
6HR MIN TEMP:   7; 6HR MAX TEMP:  20;

FAIRFIELD *    SUNNY     18   3  53 SE5       30.36R WCI  11
FORT MADISON * SUNNY     19   7  58 SE6       30.35F WCI  11
KEOKUK *       SUNNY     19   7  58 SE6       30.34F WCI  11
OSKALOOSA *      N/A     17   6  60 E5        30.35F WCI  10
CENTERVILLE *  SUNNY     18   5  57 CALM      30.34F
OTTUMWA        SUNNY     18   4  54 CALM      30.35R
6HR MIN TEMP:   4; 6HR MAX TEMP:  18;

WASHINGTON *   SUNNY     18   1  49 CALM      30.37S
$$

ABBREVIATIONS USED IN REMARKS
   TC - TEMPERATURES IN CELSIUS
  WCI - WIND CHILL INDEX
   HX - HEAT INDEX
  VSB - VISIBILITY
$$





USA.gov is the U.S. government's official web portal to all federal, state and local government web resources and services.